Laconia, New Hampshire, United States (03246)
Lat: 43.53N, Lon: 71.47W
Wx Zone: NHZ009
Local Info
Past Weather Observations for Tuesday, July 22, 2014

NOTE: This archive is for the closest National Weather Service station to Laconia. Information may differ from the station used for current weather conditions.

Click here for Long-term Archive

Time Weather Temperature Dewpoint Humidity Pressure Winds Precip Visibility
23:55
Clear
73°F / 23°C 64°F / 18°C 74% 29.95 in
(1014 mb)
SSW 6.9 mph
(SSW 11 kph)
- 10SM
23:35
Clear
73°F / 23°C 64°F / 18°C 74% 29.95 in
(1014 mb)
SSW 5.8 mph
(SSW 9 kph)
- 10SM
23:15
Clear
73°F / 23°C 64°F / 18°C 74% 29.95 in
(1014 mb)
SSW 4.6 mph
(SSW 7 kph)
- 10SM
22:55
Clear
75°F / 24°C 64°F / 18°C 69% 29.95 in
(1014 mb)
SSW 6.9 mph
(SSW 11 kph)
- 10SM
22:35
Clear
75°F / 24°C 64°F / 18°C 69% 29.95 in
(1014 mb)
SSW 8.1 mph
(SSW 13 kph)
- 10SM
22:15
Clear
75°F / 24°C 64°F / 18°C 69% 29.98 in
(1015 mb)
SSW 6.9 mph
(SSW 11 kph)
- 10SM
21:55
Clear
75°F / 24°C 66°F / 19°C 74% 29.98 in
(1015 mb)
SSW 6.9 mph
(SSW 11 kph)
- 10SM
21:35
Clear
75°F / 24°C 66°F / 19°C 74% 29.98 in
(1015 mb)
SSW 4.6 mph
(SSW 7 kph)
- 10SM
21:15
Clear
75°F / 24°C 66°F / 19°C 74% 29.98 in
(1015 mb)
SSW 5.8 mph
(SSW 9 kph)
- 10SM
20:55
Clear
75°F / 24°C 66°F / 19°C 74% 29.98 in
(1015 mb)
SSW 3.5 mph
(SSW 6 kph)
- 10SM
20:35
Clear
75°F / 24°C 66°F / 19°C 74% 30.01 in
(1016 mb)
SSW 4.6 mph
(SSW 7 kph)
- 10SM
20:15
Clear
77°F / 25°C 66°F / 19°C 69% 29.98 in
(1015 mb)
SSW 3.5 mph
(SSW 6 kph)
- 10SM
19:55
Clear
79°F / 26°C 66°F / 19°C 65% 29.98 in
(1015 mb)
SSW 3.5 mph
(SSW 6 kph)
- 10SM
19:35
Clear
79°F / 26°C 66°F / 19°C 65% 29.98 in
(1015 mb)
SSW 3.5 mph
(SSW 6 kph)
- 10SM
19:15
Clear
79°F / 26°C 66°F / 19°C 65% 29.98 in
(1015 mb)
SW 5.8 mph
(SW 9 kph)
- 10SM
18:55
Clear
81°F / 27°C 66°F / 19°C 62% 29.98 in
(1015 mb)
SW 5.8 mph
(SW 9 kph)
- 10SM
18:35
Clear
81°F / 27°C 66°F / 19°C 62% 29.98 in
(1015 mb)
SSE 5.8 mph
(SSE 9 kph)
- 10SM
18:15
Partly Cloudy
82°F / 28°C 64°F / 18°C 55% 29.98 in
(1015 mb)
SW 5.8 mph
(SW 9 kph)
- 10SM
17:55
Mostly Cloudy
82°F / 28°C 66°F / 19°C 58% 29.98 in
(1015 mb)
SSE 5.8 mph
(SSE 9 kph)
- 10SM
17:35
Partly Cloudy
84°F / 29°C 64°F / 18°C 51% 29.98 in
(1015 mb)
S 8.1 mph
(S 13 kph)
- 10SM
17:15
Clear
84°F / 29°C 64°F / 18°C 51% 30.01 in
(1016 mb)
SSE 8.1 mph
(SSE 13 kph)
- 10SM
16:55
Clear
84°F / 29°C 64°F / 18°C 51% 30.01 in
(1016 mb)
S 9.2 mph
(S 15 kph)
- 10SM
16:35
Partly Cloudy
84°F / 29°C 64°F / 18°C 51% 30.01 in
(1016 mb)
SW 11.5 mph
(SW 19 kph)
- 10SM
16:15
Clear
86°F / 30°C 64°F / 18°C 49% 30.01 in
(1016 mb)
SW 8.1 mph
(SW 13 kph)
- 10SM
15:55
Clear
86°F / 30°C 64°F / 18°C 49% 30.01 in
(1016 mb)
SW 10.4 mph
(SW 17 kph)
- 10SM
15:35
Clear
86°F / 30°C 64°F / 18°C 49% 30.01 in
(1016 mb)
SW 9.2 mph
(SW 15 kph)
- 10SM
15:15
Clear
86°F / 30°C 64°F / 18°C 49% 30.04 in
(1017 mb)
SW 10.4 mph
(SW 17 kph)
- 10SM
14:55
Partly Cloudy
84°F / 29°C 64°F / 18°C 51% 30.04 in
(1017 mb)
SSW 10.4 mph
(SSW 17 kph)
- 10SM
14:35
Partly Cloudy
84°F / 29°C 64°F / 18°C 51% 30.04 in
(1017 mb)
SW 9.2 mph
(SW 15 kph)
- 10SM
14:15
Clear
84°F / 29°C 64°F / 18°C 51% 30.04 in
(1017 mb)
SW 12.7 mph
(SW 20 kph)
- 10SM
13:55
Clear
84°F / 29°C 64°F / 18°C 51% 30.04 in
(1017 mb)
SW 12.7 mph
(SW 20 kph)
- 10SM
13:35
Partly Cloudy
84°F / 29°C 66°F / 19°C 55% 30.04 in
(1017 mb)
SW 12.7 mph
(SW 20 kph)
- 10SM
13:15
Mostly Cloudy
84°F / 29°C 64°F / 18°C 51% 30.06 in
(1018 mb)
SW 9.2 mph
(SW 15 kph)
- 10SM
12:55
Partly Cloudy
82°F / 28°C 64°F / 18°C 55% 30.06 in
(1018 mb)
SW 10.4 mph
(SW 17 kph)
- 10SM
12:35
Partly Cloudy
84°F / 29°C 66°F / 19°C 55% 30.06 in
(1018 mb)
SW 10.4 mph
(SW 17 kph)
- 10SM
12:15
Clear
84°F / 29°C 64°F / 18°C 51% 30.06 in
(1018 mb)
SW 6.9 mph
(SW 11 kph)
- 10SM
11:55
Clear
84°F / 29°C 64°F / 18°C 51% 30.06 in
(1018 mb)
SW 8.1 mph
(SW 13 kph)
- 10SM
11:35
Clear
82°F / 28°C 64°F / 18°C 55% 30.09 in
(1019 mb)
SSW 6.9 mph
(SSW 11 kph)
- 10SM
11:15
Clear
82°F / 28°C 64°F / 18°C 55% 30.09 in
(1019 mb)
SSW 8.1 mph
(SSW 13 kph)
- 10SM
10:55
Clear
81°F / 27°C 64°F / 18°C 58% 30.09 in
(1019 mb)
Calm - 10SM
10:35
Clear
81°F / 27°C 64°F / 18°C 58% 30.09 in
(1019 mb)
SW 6.9 mph
(SW 11 kph)
- 10SM
10:15
Partly Cloudy
79°F / 26°C 64°F / 18°C 61% 30.12 in
(1020 mb)
SW 3.5 mph
(SW 6 kph)
- 5SM
09:55
Partly Cloudy
79°F / 26°C 64°F / 18°C 61% 30.12 in
(1020 mb)
SW 3.5 mph
(SW 6 kph)
- 10SM
09:35
Clear
79°F / 26°C 64°F / 18°C 61% 30.12 in
(1020 mb)
SSW 4.6 mph
(SSW 7 kph)
- 10SM
09:15
Clear
77°F / 25°C 63°F / 17°C 61% 30.12 in
(1020 mb)
SW 4.6 mph
(SW 7 kph)
- 10SM
08:55
Clear
77°F / 25°C 63°F / 17°C 61% 30.12 in
(1020 mb)
SSW 8.1 mph
(SSW 13 kph)
- 10SM
08:35
Clear
75°F / 24°C 63°F / 17°C 65% 30.12 in
(1020 mb)
SW 6.9 mph
(SW 11 kph)
- 10SM
08:15
Clear
73°F / 23°C 63°F / 17°C 69% 30.12 in
(1020 mb)
SSW 5.8 mph
(SSW 9 kph)
- 10SM
07:55
Clear
73°F / 23°C 63°F / 17°C 69% 30.12 in
(1020 mb)
SSW 6.9 mph
(SSW 11 kph)
- 10SM
07:35
Clear
72°F / 22°C 61°F / 16°C 69% 30.12 in
(1020 mb)
SSW 4.6 mph
(SSW 7 kph)
- 10SM
07:15
Clear
70°F / 21°C 61°F / 16°C 73% 30.12 in
(1020 mb)
SSW 6.9 mph
(SSW 11 kph)
- 10SM
06:55
Clear
68°F / 20°C 61°F / 16°C 78% 30.15 in
(1021 mb)
SSW 5.8 mph
(SSW 9 kph)
- 10SM
06:35
Clear
66°F / 19°C 61°F / 16°C 83% 30.15 in
(1021 mb)
SSW 5.8 mph
(SSW 9 kph)
- 10SM
06:15
Clear
66°F / 19°C 59°F / 15°C 78% 30.12 in
(1020 mb)
SSW 4.6 mph
(SSW 7 kph)
- 10SM
05:55
Clear
64°F / 18°C 59°F / 15°C 83% 30.12 in
(1020 mb)
SW 5.8 mph
(SW 9 kph)
- 10SM
05:35
Clear
64°F / 18°C 57°F / 14°C 78% 30.15 in
(1021 mb)
SSW 3.5 mph
(SSW 6 kph)
- 10SM
05:15
Clear
63°F / 17°C 57°F / 14°C 83% 30.15 in
(1021 mb)
Calm - 10SM
04:55
Clear
63°F / 17°C 57°F / 14°C 83% 30.15 in
(1021 mb)
SW 3.5 mph
(SW 6 kph)
- 10SM
04:35
Clear
63°F / 17°C 57°F / 14°C 83% 30.15 in
(1021 mb)
Calm - 10SM
04:15
Partly Cloudy
63°F / 17°C 57°F / 14°C 83% 30.15 in
(1021 mb)
SW 3.5 mph
(SW 6 kph)
- 10SM
03:55
Partly Cloudy
63°F / 17°C 57°F / 14°C 83% 30.12 in
(1020 mb)
Calm - 10SM
03:35
Mostly Cloudy
63°F / 17°C 59°F / 15°C 88% 30.12 in
(1020 mb)
Calm - 10SM
03:15
Mostly Cloudy
63°F / 17°C 57°F / 14°C 83% 30.12 in
(1020 mb)
SSW 3.5 mph
(SSW 6 kph)
- 10SM
02:55
Mostly Cloudy
63°F / 17°C 57°F / 14°C 83% 30.12 in
(1020 mb)
SSW 5.8 mph
(SSW 9 kph)
- 10SM
02:35
Mostly Cloudy
63°F / 17°C 57°F / 14°C 83% 30.12 in
(1020 mb)
SSW 4.6 mph
(SSW 7 kph)
- 10SM
02:15
Clear
63°F / 17°C 57°F / 14°C 83% 30.12 in
(1020 mb)
Calm - 10SM
01:55
Clear
63°F / 17°C 57°F / 14°C 83% 30.12 in
(1020 mb)
SSW 3.5 mph
(SSW 6 kph)
- 10SM
01:35
Clear
63°F / 17°C 57°F / 14°C 83% 30.12 in
(1020 mb)
SSW 3.5 mph
(SSW 6 kph)
- 10SM
01:15
Clear
63°F / 17°C 57°F / 14°C 83% 30.15 in
(1021 mb)
Calm - 10SM
00:55
Clear
63°F / 17°C 57°F / 14°C 83% 30.15 in
(1021 mb)
Calm - 10SM
00:35
Clear
63°F / 17°C 57°F / 14°C 83% 30.15 in
(1021 mb)
Calm - 10SM
00:15
Clear
63°F / 17°C 57°F / 14°C 83% 30.15 in
(1021 mb)
Calm - 10SM
Time Weather Temperature Dewpoint Humidity Pressure Winds Precip Visibility


Weather for websites

WeatherForYou.com, LLC is not responsible for any damages or problems caused by this service. Current weather conditions are obtained from the closest station including government and personal stations which may have varying degrees of accuracy. Weather forecasts are derived from the NOAA NDFD. Like all things, this site belongs to Jesus Christ... He just trusts me to maintain it. If you have any questions or comments email webmaster@weatherforyou.com

Copyright © 2014, WeatherForYou.com LLC. All rights reserved.